SCP
0 0 0 0 0 0 0 0 0 0 0 0 0 0 0 0 0 0 0 0 0 0 0 0 0 0 0 0 0 0 0 0 0 0 0 0 0 0
0 0 0 0 0 0 0 0 0 0 0 0 0 0 0 0 0 0 0 0 0 0 0 0 0 0 0 0 0 0 0 0 0 0 0 0 0 0
0 0 0 0 0 0 0 0 0 0 0 0 0 0 0 0 0 0 0 0 0 0 0 0 0 0 0 0 0 0 0 0 0 0 0 0 0 0
0 0 0 0 0 0 0 0 0 0 0 0 0 0 0 0 0 0 0 0 0 0 0 0 0 0 0 0 0 0 0 0 0 0 0 0 0 0
0 0 0 0 0 0 0 0 0 0 0 0 0 0 0 0 0 0 0 0 0 0 0 0 0 0 0 0 0 0 0 0 0 0 0 0 0 0
0 0 0 0 0 0 0 0 0 0 0 0 0 0 0 0 0 0 0 0 0 0 0 0 0 0 0 0 0 0 0 0 0 0 0 0 0 0
0 0 0 0 0 0 0 0 0 0 0 0 0 0 0 0 0 0 0 0 0 0 0 0 0 0 0 0 0 0 0 0 0 0 0 0 0 0
0 0 0 0 0 0 0 0 0 0 0 0 0 0 0 0 0 0 0 0 0 0 0 0 0 0 0 0 0 0 0 0 0 0 0 0 0 0
0 0 0 0 0 0 0 0 0 0 0 0 0 0 0 0 0 0 0 0 0 0 0 0 0 0 0 0 0 0 0 0 0 0 0 0 0 0
0 0 0 0 0 0 0 0 0 0 0 0 0 0 0 0 0 0 0 0 0 0 0 0 0 0 0 0 0 0 0 0 0 0 0 0 0 0
0 0 0 0 0 0 0 0 0 0 0 0 0 0 0 0 0 0 0 0 0 0 0 0 0 0 0 0 0 0 0 0 0 0 0 0 0 0
0 0 0 0 0 0 0 0 0 0 0 0 0 0 0 0 0 0 0 0 0 0 0 0 0 0 0 0 0 0 0 0 0 0 0 0 0 0
0 0 0 0 0 0 0 0 0 0 0 0 0 0 0 0 0 0 0 0 0 0 0 0 0 0 0 0 0 0 0 0 0 0 0 0 0 0
0 0 0 0 0 0 0 0 0 0 0 0 0 0 0 0 0 0 0 0 0 0 0 0 0 0 0 0 0 0 0 0 0 0 0 0 0 0
0 0 0 0 0 0 0 0 0 0 0 0 0 0 0 0 0 0 0 0 0 0 0 0 0 0 0 0 0 0 0 0 0 0 0 0 0 0
0 0 0 0 0 0 0 0 0 0 0 0 0 0 0 0 0 0 0 0 0 0 0 0 0 0 0 0 0 0 0 0 0 0 0 0 0 0
0 0 0 0 0 0 0 0 0 0 0 0 0 0 0 0 0 0 0 0 0 0 0 0 0 0 0 0 0 0 0 0 0 0 0 0 0 0
0 0 0 0 0 0 0 0 0 0 0 0 0 0 0 0 0 0 0 0 0 0 0 0 0 0 0 0 0 0 0 0 0 0 0 0 0 0
0 0 0 0 0 0 0 0 0 0 0 0 0 0 0 0 0 0 0 0 0 0 0 0 0 0 0 0 0 0 0 0 0 0 0 0 0 0
0 0 0 0 0 0 0 0 0 0 0 0 0 0 0 0 0 0 0 0 0 0 0 0 0 0 0 0 0 0 0 0 0 0 0 0 0 0
0 0 0 0 0 0 0 0 0 0 0 0 0 0 0 0 0 0 0 0 0 0 0 0 0 0 0 0 0 0 0 0 0 0 0 0 0 0
0 0 0 0 0 0 0 0 0 0 0 0 0 0 0 0 0 0 0 0 0 0 0 0 0 0 0 0 0 0 0 0 0 0 0 0 0 0
0 0 0 0 0 0 0 0 0 0 0 0 0 0 0 0 0 0 0 0 0 0 0 0 0 0 0 0 0 0 0 0 0 0 0 0 0 0
Wind_Speed_500mb
80 80 84 88 93 94 97 94 90 72 77 73 78 83 75 67 61 54 55 56 53 58 61 60 60 67 62 48 43 52 53 68 64 75 66 70 64 63
82 81 86 85 84 84 86 88 94 95 94 80 88 87 80 75 69 66 64 64 64 67 64 61 55 52 51 49 46 43 51 57 67 71 76 72 67 64
82 85 86 82 85 87 86 89 89 86 97 93 90 86 81 77 74 73 76 73 79 71 57 51 50 51 51 51 48 42 44 57 73 76 74 67 55 54
80 81 84 83 92 88 83 95 91 87 93 95 88 87 82 80 74 72 76 83 54 44 42 54 52 52 49 46 51 46 47 63 66 59 54 49 49 48
74 77 79 78 93 92 92 97 89 84 92 96 94 86 85 85 83 77 74 40 52 54 54 56 54 53 50 50 44 43 47 68 70 60 46 50 54 50
77 73 70 71 77 88 90 102 74 88 90 93 93 90 86 84 79 66 38 50 62 51 56 50 52 53 46 42 38 42 48 68 68 66 62 61 60 55
72 73 72 73 70 70 75 78 75 85 84 96 84 84 82 84 76 63 57 54 50 50 52 53 48 45 44 45 43 44 52 66 65 61 59 58 58 54
76 74 71 65 71 66 66 68 79 78 77 78 78 78 67 77 70 65 54 56 53 49 53 47 52 48 45 44 42 47 51 57 58 58 54 52 50 51
76 79 81 80 78 77 79 77 78 76 71 81 82 83 77 64 55 57 51 52 57 56 47 51 52 47 42 43 46 48 52 53 54 53 50 50 49 47
75 78 79 82 80 79 79 81 75 68 69 70 68 67 57 48 48 51 53 56 57 52 47 47 46 44 43 46 47 50 51 50 49 49 49 51 49 49
68 69 74 73 64 64 72 77 77 78 69 66 63 57 52 55 51 51 58 56 57 55 55 50 45 42 45 45 46 52 56 55 54 53 54 53 52 53
67 61 55 57 62 64 64 63 66 67 65 71 62 58 51 47 45 48 47 54 61 52 54 52 45 44 34 43 45 49 55 53 52 52 52 50 48 47
63 61 53 52 53 54 57 59 57 53 54 51 50 48 49 47 47 44 45 49 56 55 43 56 51 50 39 30 46 45 47 48 48 46 45 42 41 40
56 56 53 53 54 54 57 55 59 58 57 54 51 49 45 43 42 44 47 49 51 45 37 42 47 52 53 38 33 46 43 41 39 42 42 42 40 39
48 47 49 49 49 49 49 51 53 52 52 53 52 47 42 41 42 42 42 43 42 38 33 42 39 41 41 39 36 42 45 43 41 41 40 37 37 39
49 46 43 45 46 45 45 48 48 46 46 49 49 46 44 43 40 38 39 39 35 31 33 40 33 33 31 30 28 37 46 35 47 45 41 41 39 39
35 29 26 27 25 24 26 27 29 31 35 40 41 41 41 40 38 37 35 35 33 34 36 37 36 33 30 26 29 33 43 42 30 42 44 43 41 39
17 12 11 11 10 8 6 7 10 12 15 19 25 32 35 36 35 32 30 29 30 32 33 35 36 34 29 27 35 38 42 42 41 41 41 41 38 36
3 15 14 13 15 13 10 8 10 10 8 10 13 15 19 20 18 18 20 23 23 21 19 22 23 25 30 30 24 33 35 35 37 39 39 38 39 36
37 36 33 29 25 21 17 15 12 9 8 10 9 8 6 5 8 13 16 17 17 18 19 19 19 19 20 19 18 15 20 25 32 33 37 39 41 43
43 38 35 29 26 24 21 18 16 14 13 13 13 12 9 8 8 9 9 9 10 13 13 14 17 20 23 25 27 27 26 27 30 34 38 40 41 44
38 37 34 30 27 22 19 17 15 10 9 8 7 7 7 7 5 7 10 11 13 14 18 21 24 28 32 34 36 33 34 37 37 38 42 42 40 32
39 36 34 32 28 25 21 19 17 16 12 11 10 8 8 10 12 15 16 19 22 24 27 30 31 34 34 35 37 38 39 41 44 47 50 46 45 47
Wind_Direction_500mb
271 272 271 271 270 267 265 260 260 261 265 271 277 286 285 283 281 275 276 270 261 255 259 260 262 270 262 264 264 258 249 234 222 221 228 222 231 226
272 272 270 270 269 267 267 267 264 263 262 267 272 279 281 281 281 278 274 270 261 259 254 261 261 260 257 253 250 253 247 231 224 220 226 222 225 239
275 272 270 267 267 266 266 265 265 265 262 271 273 278 278 279 277 276 276 268 267 263 258 266 263 253 259 253 249 245 243 213 225 228 224 227 240 235
278 275 276 277 272 269 269 264 265 267 265 269 272 273 276 275 276 273 271 277 277 275 266 266 260 259 260 256 253 247 228 214 223 229 228 237 232 235
277 276 276 276 270 271 268 264 266 269 267 268 271 269 268 268 274 266 261 260 262 265 261 266 260 262 254 246 241 247 229 222 227 221 227 228 228 228
276 276 277 275 272 271 268 266 269 267 268 266 267 266 265 266 266 257 254 262 251 254 259 260 257 256 248 240 248 246 239 227 229 233 234 229 233 234
276 278 278 276 275 273 270 270 275 267 268 263 264 256 259 263 262 255 262 256 252 253 258 254 250 249 242 247 251 241 240 228 230 231 232 235 238 243
267 269 270 272 273 272 267 274 271 267 276 270 266 274 270 272 270 258 250 245 243 254 252 254 243 238 244 248 245 242 232 223 223 228 233 235 238 240
265 265 264 265 268 270 269 269 268 265 265 271 270 273 270 271 263 251 246 252 258 259 248 239 231 239 242 245 239 228 223 221 226 230 230 230 237 241
269 265 267 267 265 265 267 269 270 270 267 263 269 275 262 254 258 258 260 255 244 236 225 220 230 237 244 243 230 225 220 222 224 227 230 233 238 241
280 275 270 268 270 269 268 270 271 267 264 271 269 261 266 262 251 247 241 232 223 220 219 224 227 230 233 227 225 220 217 213 215 222 233 237 238 243
287 285 281 278 267 266 267 269 270 265 269 271 255 263 263 248 241 234 232 230 224 221 222 222 224 220 213 225 224 219 219 222 223 226 233 235 236 234
289 288 283 274 271 268 266 263 264 261 258 253 255 248 249 244 238 235 230 230 228 229 235 220 217 213 208 210 209 208 211 215 218 220 228 227 224 223
289 289 284 274 269 268 266 265 261 258 255 248 240 234 236 235 233 232 228 226 222 223 224 214 222 217 214 206 201 205 207 209 210 213 211 208 213 223
282 284 283 280 275 268 266 266 260 254 247 238 233 232 236 233 225 219 215 212 212 215 215 210 214 211 211 220 213 200 195 193 193 196 204 214 225 236
281 281 280 277 273 267 262 261 256 248 241 237 235 233 223 214 210 209 205 203 203 197 193 200 203 198 204 207 211 201 197 191 199 203 212 224 234 245
286 287 282 263 261 257 249 243 240 237 235 234 232 222 212 206 200 198 200 202 204 203 201 204 213 212 208 205 203 200 202 204 202 215 225 233 238 249
282 255 245 260 247 233 232 232 221 220 226 228 217 209 203 200 198 198 205 213 216 211 211 211 213 212 213 204 201 204 209 216 225 229 234 243 250 254
109 91 97 90 88 92 100 93 84 88 111 148 173 182 200 205 211 218 211 195 184 183 186 197 201 206 212 206 218 221 224 227 231 236 240 245 254 254
70 71 75 78 77 76 74 74 79 87 101 116 123 126 144 167 174 171 177 171 168 173 179 192 205 215 228 229 226 228 231 236 235 238 245 251 254 261
51 53 57 61 66 68 70 74 80 90 106 124 133 150 161 168 160 143 140 140 165 180 193 212 225 234 240 244 245 250 256 257 256 251 252 255 260 265
35 33 35 36 38 41 45 49 55 67 84 97 117 150 164 179 193 210 207 212 224 227 230 231 238 245 250 252 256 259 259 257 256 257 259 261 264 263
22 18 14 13 13 14 11 359 355 351 345 332 317 304 276 254 248 249 255 248 243 244 247 247 244 245 248 251 253 254 256 259 260 262 265 269 269 267
Wind_Speed_850mb
80 80 84 88 93 94 97 94 90 72 77 73 78 83 75 67 61 54 55 56 53 58 61 60 60 67 62 48 43 52 53 68 64 75 66 70 64 63
82 81 86 85 84 84 86 88 94 95 94 80 88 87 80 75 69 66 64 64 64 67 64 61 55 52 51 49 46 43 51 57 67 71 76 72 67 64
82 85 86 82 85 87 86 89 89 86 97 93 90 86 81 77 74 73 76 73 79 71 57 51 50 51 51 51 48 42 44 57 73 76 74 67 55 54
80 81 84 83 92 88 83 95 91 87 93 95 88 87 82 80 74 72 76 83 54 44 42 54 52 52 49 46 51 46 47 63 66 59 54 49 49 48
74 77 79 78 93 92 92 97 89 84 92 96 94 86 85 85 83 77 74 40 52 54 54 56 54 53 50 50 44 43 47 68 70 60 46 50 54 50
77 73 70 71 77 88 90 102 74 88 90 93 93 90 86 84 79 66 38 50 62 51 56 50 52 53 46 42 38 42 48 68 68 66 62 61 60 55
72 73 72 73 70 70 75 78 75 85 84 96 84 84 82 84 76 63 57 54 50 50 52 53 48 45 44 45 43 44 52 66 65 61 59 58 58 54
76 74 71 65 71 66 66 68 79 78 77 78 78 78 67 77 70 65 54 56 53 49 53 47 52 48 45 44 42 47 51 57 58 58 54 52 50 51
76 79 81 80 78 77 79 77 78 76 71 81 82 83 77 64 55 57 51 52 57 56 47 51 52 47 42 43 46 48 52 53 54 53 50 50 49 47
75 78 79 82 80 79 79 81 75 68 69 70 68 67 57 48 48 51 53 56 57 52 47 47 46 44 43 46 47 50 51 50 49 49 49 51 49 49
68 69 74 73 64 64 72 77 77 78 69 66 63 57 52 55 51 51 58 56 57 55 55 50 45 42 45 45 46 52 56 55 54 53 54 53 52 53
67 61 55 57 62 64 64 63 66 67 65 71 62 58 51 47 45 48 47 54 61 52 54 52 45 44 34 43 45 49 55 53 52 52 52 50 48 47
63 61 53 52 53 54 57 59 57 53 54 51 50 48 49 47 47 44 45 49 56 55 43 56 51 50 39 30 46 45 47 48 48 46 45 42 41 40
56 56 53 53 54 54 57 55 59 58 57 54 51 49 45 43 42 44 47 49 51 45 37 42 47 52 53 38 33 46 43 41 39 42 42 42 40 39
48 47 49 49 49 49 49 51 53 52 52 53 52 47 42 41 42 42 42 43 42 38 33 42 39 41 41 39 36 42 45 43 41 41 40 37 37 39
49 46 43 45 46 45 45 48 48 46 46 49 49 46 44 43 40 38 39 39 35 31 33 40 33 33 31 30 28 37 46 35 47 45 41 41 39 39
35 29 26 27 25 24 26 27 29 31 35 40 41 41 41 40 38 37 35 35 33 34 36 37 36 33 30 26 29 33 43 42 30 42 44 43 41 39
17 12 11 11 10 8 6 7 10 12 15 19 25 32 35 36 35 32 30 29 30 32 33 35 36 34 29 27 35 38 42 42 41 41 41 41 38 36
3 15 14 13 15 13 10 8 10 10 8 10 13 15 19 20 18 18 20 23 23 21 19 22 23 25 30 30 24 33 35 35 37 39 39 38 39 36
37 36 33 29 25 21 17 15 12 9 8 10 9 8 6 5 8 13 16 17 17 18 19 19 19 19 20 19 18 15 20 25 32 33 37 39 41 43
43 38 35 29 26 24 21 18 16 14 13 13 13 12 9 8 8 9 9 9 10 13 13 14 17 20 23 25 27 27 26 27 30 34 38 40 41 44
38 37 34 30 27 22 19 17 15 10 9 8 7 7 7 7 5 7 10 11 13 14 18 21 24 28 32 34 36 33 34 37 37 38 42 42 40 32
39 36 34 32 28 25 21 19 17 16 12 11 10 8 8 10 12 15 16 19 22 24 27 30 31 34 34 35 37 38 39 41 44 47 50 46 45 47
Wind_Direction_850mb
271 272 271 271 270 267 265 260 260 261 265 271 277 286 285 283 281 275 276 270 261 255 259 260 262 270 262 264 264 258 249 234 222 221 228 222 231 226
272 272 270 270 269 267 267 267 264 263 262 267 272 279 281 281 281 278 274 270 261 259 254 261 261 260 257 253 250 253 247 231 224 220 226 222 225 239
275 272 270 267 267 266 266 265 265 265 262 271 273 278 278 279 277 276 276 268 267 263 258 266 263 253 259 253 249 245 243 213 225 228 224 227 240 235
278 275 276 277 272 269 269 264 265 267 265 269 272 273 276 275 276 273 271 277 277 275 266 266 260 259 260 256 253 247 228 214 223 229 228 237 232 235
277 276 276 276 270 271 268 264 266 269 267 268 271 269 268 268 274 266 261 260 262 265 261 266 260 262 254 246 241 247 229 222 227 221 227 228 228 228
276 276 277 275 272 271 268 266 269 267 268 266 267 266 265 266 266 257 254 262 251 254 259 260 257 256 248 240 248 246 239 227 229 233 234 229 233 234
276 278 278 276 275 273 270 270 275 267 268 263 264 256 259 263 262 255 262 256 252 253 258 254 250 249 242 247 251 241 240 228 230 231 232 235 238 243
267 269 270 272 273 272 267 274 271 267 276 270 266 274 270 272 270 258 250 245 243 254 252 254 243 238 244 248 245 242 232 223 223 228 233 235 238 240
265 265 264 265 268 270 269 269 268 265 265 271 270 273 270 271 263 251 246 252 258 259 248 239 231 239 242 245 239 228 223 221 226 230 230 230 237 241
269 265 267 267 265 265 267 269 270 270 267 263 269 275 262 254 258 258 260 255 244 236 225 220 230 237 244 243 230 225 220 222 224 227 230 233 238 241
280 275 270 268 270 269 268 270 271 267 264 271 269 261 266 262 251 247 241 232 223 220 219 224 227 230 233 227 225 220 217 213 215 222 233 237 238 243
287 285 281 278 267 266 267 269 270 265 269 271 255 263 263 248 241 234 232 230 224 221 222 222 224 220 213 225 224 219 219 222 223 226 233 235 236 234
289 288 283 274 271 268 266 263 264 261 258 253 255 248 249 244 238 235 230 230 228 229 235 220 217 213 208 210 209 208 211 215 218 220 228 227 224 223
289 289 284 274 269 268 266 265 261 258 255 248 240 234 236 235 233 232 228 226 222 223 224 214 222 217 214 206 201 205 207 209 210 213 211 208 213 223
282 284 283 280 275 268 266 266 260 254 247 238 233 232 236 233 225 219 215 212 212 215 215 210 214 211 211 220 213 200 195 193 193 196 204 214 225 236
281 281 280 277 273 267 262 261 256 248 241 237 235 233 223 214 210 209 205 203 203 197 193 200 203 198 204 207 211 201 197 191 199 203 212 224 234 245
286 287 282 263 261 257 249 243 240 237 235 234 232 222 212 206 200 198 200 202 204 203 201 204 213 212 208 205 203 200 202 204 202 215 225 233 238 249
282 255 245 260 247 233 232 232 221 220 226 228 217 209 203 200 198 198 205 213 216 211 211 211 213 212 213 204 201 204 209 216 225 229 234 243 250 254
109 91 97 90 88 92 100 93 84 88 111 148 173 182 200 205 211 218 211 195 184 183 186 197 201 206 212 206 218 221 224 227 231 236 240 245 254 254
70 71 75 78 77 76 74 74 79 87 101 116 123 126 144 167 174 171 177 171 168 173 179 192 205 215 228 229 226 228 231 236 235 238 245 251 254 261
51 53 57 61 66 68 70 74 80 90 106 124 133 150 161 168 160 143 140 140 165 180 193 212 225 234 240 244 245 250 256 257 256 251 252 255 260 265
35 33 35 36 38 41 45 49 55 67 84 97 117 150 164 179 193 210 207 212 224 227 230 231 238 245 250 252 256 259 259 257 256 257 259 261 264 263
22 18 14 13 13 14 11 359 355 351 345 332 317 304 276 254 248 249 255 248 243 244 247 247 244 245 248 251 253 254 256 259 260 262 265 269 269 267